AQI (62)

Current Conditions for Foresthill, CA. Sunny, Dry   
Visibility: 10 miles
Space WX Alerts: CONTINUED ALERT:  Electron 2MeV Integral Flux exceeded 1000pfu ( Latest Alert ) - Issue Time: 2018 Nov 16 1701 UTC

  Summary / Temperature 

Current Temperature
64.1°F
17.8°C
(24/hr Ago)
61.1°F
(Apparent temp)
58.3°F
Comfortable
Wind Chill Graphs
64.1°F 

64.1°F/ 17.8°C
 --- Virtual Temp: 65.0°F ---

 Temp Rate:

 24/hr Difference:

 Avg Running Temp:

 Todays High:

 Todays Low:

 Y-days High:

 Y-days Low:

 Todays WChill:

 Y-days WChill:

 Evapotranspiration:

+0.1°F/hr 

+3°F

64.6°F

65.5°F 1:57pm

50.2°F 7:14am

63.4°F 1:22pm

47.4°F 4:44am

44.6°F 5:38am

41.3°F 6:10am

0.079 in

115' Above Ground

 Temperature:

 6'AGL VRS 115'AGL:

 Avg Running Temp:

 Humidity:

 Todays High:

 Todays Low:

 Y-days High:

 Y-days Low:

67.0°F 

+2.9°F

67.2°F

20% 

68.0°F 1:15pm

53.0°F 6:32am

67.0°F 1:59pm

50.0°F 6:14am

Temp & Humidity Graphs

  Wind 

Wind Speed

 Calm

Gusting to

 7.0 mph

Wind from S

169°  S

Calm

 Avg speed:

 Wind Run:

 Peak Gust:

  2.0 mph 

28.0 miles

  18.0 mph 5:33am

  Almanac  

Moon age: 8 days,14 hours,2 minutes,63%

Waxing Gibbous
63%
Illuminated
8 days in cycle

 Moonrise:

 Moonset:

 Sunrise:

 Sunset:

 Solar Noon:

1:43pm

---

6:47am

4:48pm

11:48am

1min 58s less daylight tomorrow 

  Solar Radiation 

(Current Solar)
  178 W/m2 (79%)
(Todays High)
 515 W/m2@11:31am
Feels like: 67.1°F in the sun

Rain

 Rain Today:

 Rain Rate (/hr):

 Rain last hour:

 Rain Yesterday:

 This Month:

 Season Total:

40 Days Since Last Rain Day

0.00 in

0.000 in

0.00 in

0.00 in

0.00 in

0.92 in

Updated Time

Updated: 11/16/18  3:19pm

(Updated  sec ago)

Humidity & Barometer

 Humidity:

 Wetbulb:

 Dew Point:

 Barometer:

21% 

50.8°F 

23.3°F 

30.019 inHg 

 Baro Trend:  Steady 
Northern Calif
Preparedness
Fire 
Level 

    UV Index  

(Current UV)
0.0  None
(Todays High) @ 11:32am
2.3   Low

National Weather Service Forecast

This
Afternoon
This Afternoon: Sunny
Sunny
Tonight

Tonight: Mostly Clear
Mostly Clear
Saturday

Saturday: Sunny
Sunny
Saturday
Night
Saturday Night: Mostly Clear
Mostly Clear
Sunday

Sunday: Sunny
Sunny
Sunday
Night
Sunday Night: Partly Cloudy
Partly Cloudy
Hi 65 °F ↓ Lo 46 °F Hi 65 °F ↓ Lo 50 °F Hi 65 °F Lo 47 °F

Foresthill Probe 2 Stats  
Foresthill Probe 2: is located on Thomas Street
at 3000 feet. The main Foresthill Weather site
is located on Melody ln at the 2860 foot elevation

Calm
63.2°F
17.3°C
Temp Rate:
0°F
Calm
Gusting to
1.0 mph
(Humidity)
22%
Wind from S
176°  S
Updated: 16/11/18 - 15:15:01
 Todays High: 64.8°F 13:55
 Todays Low: 47.0°F 06:34
 Rain Today: 0.00 in
 Season Total: 0.63 in

Foresthill Wx: Monthly,Yearly, Highs and Lows 

Foresthill  
This Weather Data is coming from the main Foresthill
Weather site located on Melody ln at the 2860 foot
elevation
Not Foresthill Probe 2
Weather Data
Month
  High
Month
  Low
Year
High
Year
Low
Temp 72.9°F
11/1/18
45.9°F
11/14/18
93.9°F
8/10/18
21.9°F
2/23/18
Humidity 61%
11/2/18
10%
11/8/18
100%
1/8/18
9%
10/15/18
Heat Index 72.7°F
11/1/18
45.2°F
11/11/18
93.3°F
7/25/18
27.1°F
2/20/18
Wind Chill 72.9°F
11/1/18
39.4°F
11/11/18
93.9°F
8/10/18
9.2°F
2/23/18
Wind Gust 34 mph
11/8/18
0 mph
11/1/18
43 mph
3/1/18
0 mph
1/1/18
Barometer 30.48 in
11/13/18
29.91 in
11/5/18
30.55 in
1/27/18
29.60 in
6/16/18
ET 0.14 in
11/8/18
0.00 in
11/1/18
0.25 in
6/24/18
0.00 in
1/1/18
Dew Point 47.2°F
11/1/18
0.7°F
11/8/18
66.9°F
7/24/18
0.7°F
11/8/18
Pacific Satellite US Radar Satellite Imagery Sacramento,CA.  (click to enlarge)
NWS Weather Forecast - Summary
Updated: Friday, November 16, 2018 - 2:51am PST
FIRE WEATHER WATCH FOR SIERRA FOOTHILLS FOR GUSTY NORTHEAST WINDS AND LOW HUMIDITY SATURDAY EVENING THROUGH SUNDAY MORNING
Current Interstate Highway Conditions for I-80 & US-50

[I 80: IN THE SAN FRANCISCO BAY AREA - SOLANO CO]
no traffic restrictions are reported for this area.

[I 80: IN THE NORTHERN CALIFORNIA AREA & SIERRA NEVADA]
eastbound traffic is reduced to 2 lanes at 1. 8 mi east of colfax /at long ravine/ (PLACER CO) - due to a traffic collision

[US 50: IN THE SACRAMENTO VALLEY & THE LAKE TAHOE BASIN]
the eastbound & westbound connectors to northbound sr 99 /in sacramento/ (sacramento co) are closed from 11:00pm each night to 5:00am each morning wednesday thru friday & from 0001 hrs to 6:00am saturday thru 11/17/18 - due to construction - a detour is available
  1-way controlled traffic at various locations from 5. 9 mi east of riverton /at south fork american river/ to 1 mi west of kyburz /at wildwood way/ (EL DORADO CO) from 7:00am to 12:00pm on 11/16/18 - due to construction
NWS Weather Forecast: This Afternoon and Tonight (Updated: Fri, 16-Nov-2018 2:21pm PST)
This
Afternoon
This Afternoon: Sunny
Sunny

Hi 65 °F ↓
NWS forecast: Sunny. High near 65, with temperatures falling to around 55 in the afternoon. West southwest wind around 5 mph.
Tonight

Tonight: Mostly Clear
Mostly Clear

Lo 46 °F
NWS forecast: Mostly clear, with a low around 46. East southeast wind around 6 mph.
YR.NO 10 Day Weather forecast
Last update: 11/16/2018 @ 11:38
Next update: 11/17/2018 @ 00:00
Provided by: 22
      Temperature Precipitation Pressure Wind  
Today
11/16/2018
13:00 18:00 66°F   29.97 inHg Light breeze from southwest 4 mph
  18:00 00:00 50°F   29.97 inHg Light air from east-northeast 2 mph
    (Click to enlarge)
meteogram

    Forecast for next 9 days

      Temperature Precip Pressure Wind  
Saturday
11/17/2018
00:00 06:00 37°F   29.99 inHg Light breeze from east-northeast 5 mph
  06:00 12:00 34°F   30.01 inHg Light breeze from east-northeast 5 mph
  12:00 18:00 64°F   30.01 inHg Light breeze from west-southwest 5 mph
  18:00 00:00 50°F   30.01 inHg Light air from east-northeast 2 mph
      Temperature Precip Pressure Wind  
Sunday
11/18/2018
00:00 06:00 41°F   30.06 inHg Light breeze from east-northeast 6 mph
  06:00 12:00 39°F   30.08 inHg Light breeze from east-northeast 7 mph
  12:00 18:00 64°F   30.07 inHg Light breeze from southwest 4 mph
  18:00 00:00 52°F   30.06 inHg Light air from east-northeast 3 mph
      Temperature Precip Pressure Wind  
Monday
11/19/2018
00:00 06:00 37°F   30.08 inHg Light breeze from east-northeast 7 mph
  04:00 10:00 39°F   30.04 inHg Light breeze from east-northeast 7 mph
  10:00 16:00 64°F   30.05 inHg Light air from east 2 mph
  16:00 22:00 59°F   30.00 inHg Light air from south-southwest 2 mph
  22:00 04:00 39°F   30.00 inHg Light breeze from east-northeast 6 mph
      Temperature Precip Pressure Wind  
Tuesday
11/20/2018
04:00 10:00 36°F   29.97 inHg Light breeze from east-northeast 6 mph
  10:00 16:00 63°F   29.99 inHg Light air from south 2 mph
  16:00 22:00 55°F   29.93 inHg Light air from west-southwest 2 mph
  22:00 04:00 39°F   29.93 inHg Light breeze from east 6 mph
      Temperature Precip Pressure Wind  
Wednesday
11/21/2018
04:00 10:00 37°F 0.03 in 29.86 inHg Light breeze from east 6 mph
  10:00 16:00 52°F 0.54 in 29.83 inHg Gentle breeze from south-southeast 9 mph
  16:00 22:00 41°F 0.23 in 29.84 inHg Gentle breeze from southeast 10 mph
  22:00 04:00 41°F 0.30 in 29.91 inHg Gentle breeze from south-southeast 8 mph
      Temperature Precip Pressure Wind  
Thursday
11/22/2018
04:00 10:00 39°F 0.48 in 29.94 inHg Moderate breeze from south 14 mph
  10:00 16:00 41°F 0.14 in 30.13 inHg Moderate breeze from south-southwest 13 mph
  16:00 22:00 43°F 0.11 in 30.20 inHg Gentle breeze from south-southeast 8 mph
  22:00 04:00 39°F 0.62 in 30.24 inHg Light breeze from southeast 6 mph
      Temperature Precip Pressure Wind  
Friday
11/23/2018
04:00 10:00 39°F 0.93 in 30.17 inHg Moderate breeze from south-southeast 13 mph
  10:00 16:00 43°F 0.56 in 30.17 inHg Gentle breeze from south 12 mph
  16:00 22:00 43°F 0.17 in 30.07 inHg Light breeze from southeast 6 mph
  22:00 04:00 45°F 0.05 in 30.12 inHg Light breeze from south 7 mph
      Temperature Precip Pressure Wind  
Saturday
11/24/2018
04:00 10:00 45°F 0.06 in 30.09 inHg Light air from south-southeast 3 mph
  10:00 16:00 46°F 0.09 in 30.12 inHg Light air from south 3 mph
  16:00 22:00 45°F 0.15 in 30.05 inHg Light air from south-southeast 3 mph
  22:00 04:00 45°F 0.16 in 30.01 inHg Light breeze from south 6 mph
      Temperature Precip Pressure Wind  
Sunday
11/25/2018
04:00 10:00 45°F 0.16 in 29.95 inHg Gentle breeze from south-southwest 8 mph
  10:00 16:00 46°F   30.01 inHg Light air from east-northeast 1 mph
  16:00 22:00 48°F   29.95 inHg Light breeze from west-northwest 4 mph
  22:00 04:00 41°F   29.99 inHg Gentle breeze from northeast 8 mph

NOAA Local Storm Report
SIGEL   ( More )
DATE
11/15/2018
TIME
5:00 PM
COUNTY
JEFFERSON
STATE
PA
GEOGRAPHIC
41.28N 79.12W
SOURCE
TRAINED SPOTTER
FREEZING RAIN ESTIMATED AT 0.25 INCH

NOAA Local Storm Report
INDIANA   ( More )
DATE
11/16/2018
TIME
7:00 AM
COUNTY
INDIANA
STATE
PA
GEOGRAPHIC
40.60N 79.12W
SOURCE
CO-OP OBSERVER
SNOW MEASURED AT 2.0 INCH
24-hour snowfall.

NOAA Local Storm Report
BUTLER   ( More )
DATE
11/16/2018
TIME
7:30 AM
COUNTY
BUTLER
STATE
PA
GEOGRAPHIC
40.84N 79.92W
SOURCE
CO-OP OBSERVER
SNOW MEASURED AT 2.2 INCH
24-hour snowfall.

NOAA Local Storm Report
SIGEL   ( More )
DATE
11/16/2018
TIME
10:00 AM
COUNTY
JEFFERSON
STATE
PA
GEOGRAPHIC
41.28N 79.12W
SOURCE
TRAINED SPOTTER
SNOW ESTIMATED AT 4.0 INCH
How Close Are We To this Month's Temperature Record ?
Updated Friday, Nov 16, 2018- 3:15:00 PM

Current Temperature: 64.1°F

November's High: Temperature Record 72.9°F - Set on Thu, Nov 1, 2018 - 2:44:45 PM
We are currently 8.8°F Less than this Month's record High

November's Low: Temperature Record 28.9°F - Set on Thu, Nov 26, 2015 - 6:22:00 AM
We are currently 35.2°F More than this Month's record Low

Weather History For Friday, November 16, 2018


On this Day - In Weather History ...
Data courtesy of weatherforyou.com
powered by Cumulus v1.9.3 (1059)
Ambient Weather VWS v14.00
Top Contact Website Map Copyright © 2007 - 2018 Foresthillweather.com Never base important decisions on this or any weather information obtained from the Internet